| time (UTC) | temp F | wind direction | speed knots | gust knots | rain 1hr in | rain 24hr in | rain mn in | humidity % | barometer mb |
| 20260509174507 | 65 | 347 | 3.5 | 10.4 | 0.00 | 0.00 | 0.00 | 56 | 920.1 |
| 20260509174006 | 64 | 270 | 4.3 | 11.3 | 0.00 | 0.00 | 0.00 | 57 | 920.1 |
| 20260509173506 | 65 | 315 | 4.3 | 11.3 | 0.00 | 0.00 | 0.00 | 58 | 920.0 |
| 20260509173005 | 64 | 290 | 2.6 | 8.7 | 0.00 | 0.00 | 0.00 | 62 | 919.9 |
| 20260509171505 | 62 | 299 | 3.5 | 7.8 | 0.00 | 0.00 | 0.00 | 62 | 920.1 |
| 20260509171006 | 62 | 329 | 4.3 | 8.7 | 0.00 | 0.00 | 0.00 | 64 | 920.2 |
| 20260509170505 | 63 | 308 | 4.3 | 10.4 | 0.00 | 0.00 | 0.00 | 64 | 920.5 |
| 20260509170005 | 63 | 279 | 4.3 | 10.4 | 0.00 | 0.00 | 0.00 | 62 | 920.4 |
| 20260509164005 | 63 | 297 | 5.2 | 12.2 | 0.00 | 0.00 | 0.00 | 61 | 920.5 |
| 20260509163505 | 63 | 291 | 2.6 | 10.4 | 0.00 | 0.00 | 0.00 | 60 | 920.6 |
| 20260509163005 | 64 | 267 | 4.3 | 13.0 | 0.00 | 0.00 | 0.00 | 58 | 920.6 |
| 20260509161505 | 63 | 283 | 4.3 | 10.4 | 0.00 | 0.00 | 0.00 | 64 | 920.4 |
| 20260509161006 | 63 | 292 | 3.5 | 8.7 | 0.00 | 0.00 | 0.00 | 63 | 920.4 |
| 20260509160506 | 64 | 267 | 5.2 | 11.3 | 0.00 | 0.00 | 0.00 | 61 | 920.4 |
| 20260509160006 | 64 | 278 | 7.8 | 12.2 | 0.00 | 0.00 | 0.00 | 59 | 920.6 |
| 20260509154505 | 62 | 296 | 4.3 | 10.4 | 0.00 | 0.00 | 0.00 | 64 | 920.6 |
| 20260509153505 | 62 | 295 | 5.2 | 12.2 | 0.00 | 0.00 | 0.00 | 66 | 920.4 |
| 20260509153005 | 62 | 270 | 4.3 | 10.4 | 0.00 | 0.00 | 0.00 | 66 | 920.2 |
| 20260509151505 | 61 | 321 | 5.2 | 8.7 | 0.00 | 0.00 | 0.00 | 68 | 920.2 |
| 20260509151005 | 60 | 284 | 2.6 | 6.1 | 0.00 | 0.00 | 0.00 | 68 | 920.3 |
| 20260509150505 | 61 | 300 | 2.6 | 6.1 | 0.00 | 0.00 | 0.00 | 67 | 920.5 |
| 20260509150005 | 61 | 310 | 2.6 | 8.7 | 0.00 | 0.00 | 0.00 | 68 | 920.5 |
| 20260509144005 | 60 | 316 | 2.6 | 6.1 | 0.00 | 0.00 | 0.00 | 69 | 920.2 |
| 20260509143505 | 61 | 275 | 3.5 | 7.8 | 0.00 | 0.00 | 0.00 | 69 | 920.3 |
| 20260509143005 | 61 | 287 | 2.6 | 7.8 | 0.00 | 0.00 | 0.00 | 68 | 920.5 |
| 20260509141505 | 62 | 278 | 3.5 | 7.0 | 0.00 | 0.00 | 0.00 | 65 | 920.1 |
| 20260509141004 | 62 | 276 | 2.6 | 7.0 | 0.00 | 0.00 | 0.00 | 65 | 920.0 |
| 20260509140505 | 61 | 296 | 2.6 | 6.1 | 0.00 | 0.00 | 0.00 | 66 | 920.2 |
| 20260509140005 | 61 | 44 | 1.7 | 8.7 | 0.00 | 0.00 | 0.00 | 68 | 920.1 |
| 20260509134005 | 60 | 281 | 1.7 | 7.0 | 0.00 | 0.00 | 0.00 | 70 | 920.2 |
| 20260509133504 | 60 | 308 | 2.6 | 7.8 | 0.00 | 0.00 | 0.00 | 69 | 920.2 |
| 20260509133005 | 60 | 323 | 1.7 | 7.8 | 0.00 | 0.00 | 0.00 | 70 | 920.2 |
| 20260509131505 | 59 | 306 | 1.7 | 6.1 | 0.00 | 0.00 | 0.00 | 70 | 920.1 |
| 20260509131004 | 58 | 297 | 2.6 | 5.2 | 0.00 | 0.00 | 0.00 | 72 | 920.1 |
| 20260509130505 | 58 | 321 | 1.7 | 6.1 | 0.00 | 0.00 | 0.00 | 73 | 920.0 |
| 20260509130005 | 56 | 308 | 1.7 | 6.1 | 0.00 | 0.00 | 0.00 | 75 | 920.0 |
| 20260509124505 | 51 | 312 | 1.7 | 5.2 | 0.00 | 0.00 | 0.00 | 88 | 920.4 |
| 20260509124004 | 50 | 282 | 0.9 | 2.6 | 0.00 | 0.00 | 0.00 | 94 | 920.5 |
| 20260509123505 | 49 | 355 | 0.9 | 1.7 | 0.00 | 0.00 | 0.00 | 96 | 920.5 |
| 20260509123005 | 48 | 337 | 0.0 | 1.7 | 0.00 | 0.00 | 0.00 | 98 | 920.6 |
| 20260509121504 | 47 | 43 | 0.9 | 1.7 | 0.00 | 0.00 | 0.00 | 97 | 920.8 |
| 20260509121004 | 46 | 115 | 0.0 | 0.9 | 0.00 | 0.00 | 0.00 | 98 | 920.7 |
| 20260509120504 | 46 | 352 | 0.0 | 0.9 | 0.00 | 0.00 | 0.00 | 98 | 920.9 |
| 20260509120005 | 45 | 34 | 0.0 | 1.7 | 0.00 | 0.00 | 0.00 | 98 | 921.0 |
| 20260509114504 | 44 | 358 | 0.0 | 1.7 | 0.00 | 0.00 | 0.00 | 97 | 921.0 |
| 20260509113504 | 43 | 2 | 0.0 | 0.9 | 0.00 | 0.00 | 0.00 | 97 | 921.1 |
| 20260509113004 | 43 | 201 | 0.0 | 1.7 | 0.00 | 0.00 | 0.00 | 97 | 921.0 |
| 20260509111505 | 42 | 85 | 0.9 | 1.7 | 0.00 | 0.00 | 0.00 | 97 | 921.0 |
| 20260509111005 | 42 | 128 | 0.0 | 1.7 | 0.00 | 0.00 | 0.00 | 97 | 920.9 |
| 20260509110004 | 42 | 139 | 1.7 | 2.6 | 0.00 | 0.00 | 0.00 | 97 | 920.7 |
| 20260509104504 | 42 | 140 | 1.7 | 2.6 | 0.00 | 0.00 | 0.00 | 97 | 920.7 |
| 20260509104006 | 42 | 142 | 1.7 | 2.6 | 0.00 | 0.00 | 0.00 | 97 | 920.7 |
| 20260509101505 | 42 | 1 | 0.0 | 1.7 | 0.00 | 0.00 | 0.00 | 96 | 920.4 |
| 20260509101006 | 42 | 4 | 0.9 | 1.7 | 0.00 | 0.00 | 0.00 | 96 | 920.4 |
| 20260509100505 | 42 | 100 | 0.0 | 0.9 | 0.00 | 0.00 | 0.00 | 96 | 920.2 |
| 20260509100006 | 42 | 77 | 0.0 | 0.9 | 0.00 | 0.00 | 0.00 | 96 | 920.2 |
| 20260509094505 | 42 | 292 | 0.0 | 0.9 | 0.00 | 0.00 | 0.00 | 95 | 920.2 |
| 20260509094006 | 42 | 93 | 0.0 | 0.9 | 0.00 | 0.00 | 0.00 | 95 | 920.2 |
| 20260509093506 | 42 | 105 | 0.0 | 0.9 | 0.00 | 0.00 | 0.00 | 95 | 920.2 |
| 20260509093005 | 43 | 73 | 0.0 | 1.7 | 0.00 | 0.00 | 0.00 | 95 | 920.4 |
| 20260509091505 | 43 | 137 | 0.9 | 1.7 | 0.00 | 0.00 | 0.00 | 96 | 920.5 |
| 20260509091005 | 43 | 101 | 0.9 | 0.9 | 0.00 | 0.00 | 0.00 | 95 | 920.6 |
| 20260509090505 | 43 | 118 | 0.9 | 0.9 | 0.00 | 0.00 | 0.00 | 95 | 920.6 |
| 20260509084006 | 44 | 65 | 0.9 | 1.7 | 0.00 | 0.00 | 0.00 | 94 | 920.6 |
| 20260509083505 | 44 | 101 | 0.9 | 2.6 | 0.00 | 0.00 | 0.00 | 94 | 920.7 |
| 20260509083006 | 44 | 141 | 1.7 | 2.6 | 0.00 | 0.00 | 0.00 | 94 | 920.7 |
| 20260509081505 | 44 | 142 | 1.7 | 2.6 | 0.00 | 0.00 | 0.00 | 92 | 920.8 |
| 20260509081005 | 45 | 142 | 1.7 | 2.6 | 0.00 | 0.00 | 0.00 | 92 | 920.8 |
| 20260509080506 | 45 | 131 | 1.7 | 2.6 | 0.00 | 0.00 | 0.00 | 92 | 920.8 |
| 20260509080005 | 45 | 137 | 2.6 | 4.3 | 0.00 | 0.00 | 0.00 | 91 | 920.7 |
| 20260509074505 | 48 | 141 | 2.6 | 5.2 | 0.00 | 0.00 | 0.00 | 85 | 920.7 |
| 20260509074006 | 50 | 145 | 2.6 | 4.3 | 0.00 | 0.00 | 0.00 | 82 | 920.7 |
| 20260509073506 | 51 | 34 | 0.9 | 2.6 | 0.00 | 0.00 | 0.00 | 81 | 920.6 |
| 20260509073005 | 52 | 9 | 2.6 | 7.0 | 0.00 | 0.00 | 0.00 | 80 | 920.5 |
| 20260509071505 | 51 | 328 | 2.6 | 7.0 | 0.00 | 0.00 | 0.00 | 80 | 920.6 |
| 20260509071006 | 50 | 334 | 2.6 | 6.1 | 0.00 | 0.00 | 0.00 | 81 | 920.5 |
| 20260509070505 | 50 | 323 | 2.6 | 6.1 | 0.00 | 0.00 | 0.00 | 82 | 920.6 |
| 20260509070005 | 50 | 297 | 1.7 | 5.2 | 0.00 | 0.00 | 0.00 | 81 | 920.6 |
| 20260509063506 | 51 | 355 | 0.9 | 2.6 | 0.00 | 0.00 | 0.00 | 79 | 920.9 |
| 20260509063005 | 52 | 8 | 2.6 | 5.2 | 0.00 | 0.00 | 0.00 | 78 | 921.0 |
| 20260509061505 | 52 | 322 | 1.7 | 5.2 | 0.00 | 0.00 | 0.00 | 76 | 921.2 |
| 20260509061005 | 52 | 329 | 1.7 | 2.6 | 0.00 | 0.00 | 0.00 | 75 | 921.2 |
| 20260509060505 | 52 | 329 | 2.6 | 6.1 | 0.00 | 0.00 | 0.00 | 75 | 921.2 |
| 20260509060005 | 52 | 303 | 2.6 | 6.1 | 0.00 | 0.00 | 0.00 | 75 | 921.3 |
| 20260509054506 | 53 | 310 | 1.7 | 4.3 | 0.00 | 0.00 | 0.00 | 73 | 921.4 |
| 20260509054005 | 53 | 313 | 2.6 | 6.1 | 0.00 | 0.00 | 0.00 | 72 | 921.5 |
| 20260509053505 | 53 | 302 | 2.6 | 5.2 | 0.00 | 0.00 | 0.00 | 72 | 921.5 |
| 20260509051505 | 48 | 298 | 4.3 | 7.0 | 0.00 | 0.00 | 0.00 | 76 | 921.6 |
| 20260509051004 | 46 | 309 | 3.5 | 5.2 | 0.00 | 0.00 | 0.00 | 80 | 921.7 |
| 20260509050005 | 43 | 339 | 0.9 | 2.6 | 0.00 | 0.00 | 0.00 | 92 | 921.7 |
| 20260509044505 | 40 | 319 | 0.9 | 2.6 | 0.00 | 0.00 | 0.00 | 96 | 921.8 |
| 20260509044004 | 40 | 351 | 0.9 | 2.6 | 0.00 | 0.00 | 0.00 | 96 | 921.6 |
| 20260509043505 | 40 | 75 | 0.9 | 1.7 | 0.00 | 0.00 | 0.00 | 96 | 921.6 |
| 20260509043005 | 40 | 64 | 0.0 | 1.7 | 0.00 | 0.00 | 0.00 | 96 | 921.6 |
| 20260509041005 | 39 | 11 | 0.9 | 2.6 | 0.00 | 0.00 | 0.00 | 95 | 921.6 |
| 20260509040505 | 39 | 41 | 0.9 | 1.7 | 0.00 | 0.00 | 0.00 | 95 | 921.7 |
| 20260509040005 | 39 | 106 | 0.0 | 1.7 | 0.00 | 0.05 | 0.00 | 95 | 921.8 |
| 20260509034504 | 39 | 142 | 0.9 | 1.7 | 0.00 | 0.05 | 0.00 | 95 | 921.8 |
| 20260509033504 | 40 | 129 | 0.0 | 0.9 | 0.00 | 0.05 | 0.00 | 94 | 921.8 |
| 20260509033005 | 40 | 107 | 0.0 | 0.9 | 0.00 | 0.05 | 0.00 | 94 | 921.8 |
| 20260509031005 | 40 | 30 | 0.0 | 0.9 | 0.00 | 0.05 | 0.00 | 93 | 922.0 |
| 20260509030505 | 40 | 356 | 0.0 | 0.9 | 0.00 | 0.05 | 0.00 | 93 | 922.0 |
| 20260509030004 | 40 | 38 | 0.9 | 0.9 | 0.00 | 0.05 | 0.00 | 94 | 922.0 |
| 20260509024504 | 41 | 202 | 0.0 | 0.9 | 0.00 | 0.05 | 0.00 | 93 | 922.1 |
| 20260509024004 | 41 | 83 | 0.0 | 0.9 | 0.00 | 0.05 | 0.00 | 92 | 922.2 |
| 20260509023504 | 41 | 148 | 0.0 | 0.9 | 0.00 | 0.05 | 0.00 | 92 | 922.3 |
| 20260509023005 | 41 | 36 | 0.0 | 1.7 | 0.00 | 0.05 | 0.00 | 91 | 922.4 |
| 20260509021504 | 42 | 77 | 0.0 | 0.9 | 0.00 | 0.05 | 0.00 | 91 | 922.3 |
| 20260509021004 | 42 | 66 | 0.0 | 0.9 | 0.00 | 0.05 | 0.00 | 90 | 922.3 |
| 20260509020505 | 42 | 62 | 0.0 | 0.9 | 0.00 | 0.05 | 0.00 | 89 | 922.4 |
| 20260509020004 | 42 | 83 | 0.0 | 1.7 | 0.00 | 0.05 | 0.00 | 90 | 922.4 |
| 20260509014505 | 43 | 37 | 0.0 | 0.9 | 0.00 | 0.05 | 0.00 | 89 | 922.1 |
| 20260509014004 | 43 | 35 | 0.0 | 1.7 | 0.00 | 0.05 | 0.00 | 88 | 922.1 |
| 20260509013505 | 43 | 43 | 0.0 | 1.7 | 0.00 | 0.05 | 0.00 | 88 | 922.1 |
| 20260509013006 | 44 | 10 | 0.9 | 1.7 | 0.00 | 0.05 | 0.00 | 88 | 922.1 |
| 20260509011506 | 44 | 79 | 0.0 | 1.7 | 0.00 | 0.05 | 0.00 | 86 | 921.9 |
| 20260509011006 | 45 | 20 | 0.9 | 1.7 | 0.00 | 0.05 | 0.00 | 86 | 921.9 |
| 20260509010506 | 45 | 58 | 0.9 | 1.7 | 0.00 | 0.05 | 0.00 | 84 | 921.8 |
| 20260509010006 | 46 | 46 | 0.0 | 0.9 | 0.00 | 0.05 | 0.00 | 83 | 921.7 |
| 20260509004505 | 48 | 119 | 0.0 | 0.9 | 0.00 | 0.05 | 0.00 | 80 | 921.6 |
| 20260509004006 | 48 | 39 | 0.0 | 1.7 | 0.00 | 0.05 | 0.00 | 79 | 921.6 |
| 20260509003506 | 49 | 59 | 0.9 | 1.7 | 0.00 | 0.05 | 0.00 | 78 | 921.6 |
| 20260509003006 | 50 | 140 | 0.0 | 0.9 | 0.00 | 0.05 | 0.00 | 77 | 921.6 |
| 20260509001505 | 53 | 101 | 0.0 | 0.9 | 0.00 | 0.05 | 0.00 | 71 | 921.6 |
| 20260509000506 | 55 | 40 | 0.0 | 0.9 | 0.00 | 0.05 | 0.00 | 66 | 921.8 |
| 20260508234506 | 59 | 3 | 1.7 | 2.6 | 0.00 | 0.05 | 0.00 | 50 | 921.8 |
| 20260508234005 | 60 | 7 | 1.7 | 2.6 | 0.00 | 0.05 | 0.00 | 47 | 921.8 |
| 20260508233505 | 61 | 358 | 1.7 | 4.3 | 0.00 | 0.05 | 0.00 | 46 | 921.9 |
| 20260508233006 | 62 | 5 | 1.7 | 4.3 | 0.00 | 0.05 | 0.00 | 45 | 921.9 |
| 20260508231006 | 66 | 307 | 2.6 | 6.1 | 0.00 | 0.05 | 0.00 | 37 | 922.0 |
| 20260508230006 | 67 | 283 | 1.7 | 6.1 | 0.00 | 0.05 | 0.00 | 38 | 921.8 |
| 20260508224505 | 67 | 290 | 2.6 | 6.1 | 0.00 | 0.05 | 0.00 | 35 | 921.7 |
| 20260508223505 | 67 | 293 | 3.5 | 6.1 | 0.00 | 0.05 | 0.00 | 35 | 921.5 |
| 20260508223008 | 67 | 320 | 1.7 | 5.2 | 0.00 | 0.05 | 0.00 | 35 | 921.5 |
| 20260508221507 | 67 | 139 | 0.0 | 0.0 | 0.00 | 0.05 | 0.00 | 33 | 921.3 |
| 20260508221006 | 67 | 139 | 0.0 | 0.0 | 0.00 | 0.05 | 0.00 | 37 | 921.4 |
| 20260508220006 | 67 | 139 | 0.0 | 0.0 | 0.00 | 0.05 | 0.00 | 38 | 921.4 |
| 20260508213005 | 67 | 139 | 0.0 | 0.0 | 0.00 | 0.05 | 0.00 | 40 | 921.5 |
| 20260508211506 | 69 | 139 | 0.0 | 0.0 | 0.00 | 0.05 | 0.00 | 39 | 921.5 |
| 20260508211006 | 68 | 139 | 0.0 | 0.0 | 0.00 | 0.05 | 0.00 | 40 | 921.7 |
| 20260508210506 | 67 | 139 | 0.0 | 0.0 | 0.00 | 0.05 | 0.00 | 41 | 921.8 |
| 20260508210005 | 67 | 139 | 0.0 | 0.0 | 0.00 | 0.05 | 0.00 | 40 | 921.9 |
| 20260508204505 | 68 | 139 | 0.0 | 0.0 | 0.00 | 0.05 | 0.00 | 40 | 921.9 |
| 20260508204006 | 68 | 139 | 0.0 | 0.0 | 0.00 | 0.05 | 0.00 | 39 | 922.0 |
| 20260508203507 | 68 | 139 | 0.0 | 0.0 | 0.00 | 0.05 | 0.00 | 39 | 922.1 |
| 20260508203005 | 68 | 139 | 0.0 | 0.0 | 0.00 | 0.05 | 0.00 | 40 | 922.2 |
| 20260508201506 | 66 | 139 | 0.0 | 0.0 | 0.00 | 0.05 | 0.00 | 38 | 922.5 |
| 20260508201006 | 66 | 139 | 0.0 | 0.0 | 0.00 | 0.05 | 0.00 | 41 | 922.6 |
| 20260508200506 | 66 | 139 | 0.0 | 0.0 | 0.00 | 0.05 | 0.00 | 39 | 922.6 |
| 20260508200005 | 66 | 139 | 0.0 | 0.0 | 0.00 | 0.05 | 0.00 | 40 | 922.7 |
| 20260508194506 | 67 | 139 | 0.0 | 0.0 | 0.00 | 0.05 | 0.00 | 38 | 922.9 |
| 20260508194006 | 67 | 139 | 0.0 | 0.0 | 0.00 | 0.05 | 0.00 | 41 | 922.8 |
| 20260508193506 | 66 | 139 | 0.0 | 0.0 | 0.00 | 0.05 | 0.00 | 39 | 922.9 |
| 20260508193005 | 66 | 139 | 0.0 | 0.0 | 0.00 | 0.05 | 0.00 | 41 | 922.9 |
| 20260508191505 | 66 | 139 | 0.0 | 0.0 | 0.00 | 0.05 | 0.00 | 39 | 923.0 |
| 20260508191006 | 66 | 139 | 0.0 | 0.0 | 0.00 | 0.05 | 0.00 | 37 | 923.1 |
| 20260508190506 | 66 | 139 | 0.0 | 0.0 | 0.00 | 0.05 | 0.00 | 40 | 923.1 |
| 20260508190005 | 66 | 139 | 0.0 | 0.0 | 0.00 | 0.05 | 0.00 | 42 | 923.1 |
| 20260508184505 | 65 | 139 | 0.0 | 0.0 | 0.00 | 0.05 | 0.00 | 38 | 923.2 |
| 20260508184005 | 65 | 139 | 0.0 | 0.0 | 0.00 | 0.05 | 0.00 | 41 | 923.4 |
| 20260508183505 | 65 | 139 | 0.0 | 0.0 | 0.00 | 0.05 | 0.00 | 41 | 923.4 |
| 20260508183005 | 65 | 139 | 0.0 | 0.0 | 0.00 | 0.05 | 0.00 | 43 | 923.4 |
| 20260508181505 | 64 | 139 | 0.0 | 0.0 | 0.00 | 0.05 | 0.00 | 41 | 923.7 |
| 20260508180505 | 64 | 139 | 0.0 | 0.0 | 0.00 | 0.05 | 0.00 | 46 | 923.8 |
| 20260508180005 | 63 | 139 | 0.0 | 0.0 | 0.00 | 0.05 | 0.00 | 45 | 923.8 |